Location: Poughquag
(41.6090°N, 73.6820°W)
Time: 12:37:46
(UTC-04:00)

Vanguard 2 Rocket - Pass Details

Date: 30 May 2020
Orbit: 556 x 3324 km, 32.9° (Epoch: 06 July)

Event Time Altitude Azimuth Distance (km) Brightness Sun altitude
Rises 21:02:58 0° 275° (W) 5,517 12.0 -7.2°
Reaches altitude 10° 21:06:25 10° 268° (W) 4,850 11.4 -7.7°
Maximum altitude 21:19:50 41° 206° (SSW) 3,874 9.9 -9.6°
Enters shadow 21:36:36 12° 147° (SSE) 6,109 10.5 -11.9°
Drops below altitude 10° 21:37:31 10° 145° (SE) 6,273 - -12.1°
Sets 21:42:50 0° 139° (SE) 7,228 - -12.8°
